Flag for Germany Weather past 2 weeks in Leimen, Baden-Württemberg, Germany

61 °F

Passing clouds.

Feels Like: 61 °F
Forecast: 54 / 63 °F
Wind: 3 mph from Southeast

Location: Baden Wurttemberg - Neuostheim

Current Time: Oct 6, 2015 at 10:31:42 PM

Latest Report: Oct 6, 2015 at 9:20 PM

Visibility: N/A

Pressure: 29.74 "Hg

Humidity: 94%

Dew point: 59 °F

Location of LeimenLocation

Historic Weather in Leimen — Graph


Leimen temperature yesterday

Maximum temperature yesterday: 66 °F (at 4:50 PM)
Minimum temperature yesterday: 45 °F (at 7:50 AM)
Average temperature yesterday: 58 °F

Past Weeks' High & Low Weather Summary

High70 °F (Oct 2, 3:20 PM)100% (Sep 24, 7:50 AM)30.57 "Hg (Sep 24, 7:50 AM)
Low43 °F (Oct 2, 6:20 AM)34% (Sep 29, 12:50 PM)29.62 "Hg (Sep 22, 4:50 PM)
Average59 °F67%30.14 "Hg
* Reported Sep 21 9:20 PM — Oct 6 9:20 PM, Leimen, Weather by CustomWeather, © 2015

Note: Actual official high and low records may vary slightly from our data, if they occured in-between our weather recording intervals... More about our weather records


Leimen weather history for previous 24 hours

Time TempWeatherWind HumidityBarometerVisibility
9:20 PM
Tue, Oct 6
61 °FPassing clouds.3 mph94%29.74 "HgN/A
8:50 PM63 °FPassing clouds.5 mph88%29.74 "HgN/A
8:20 PM63 °FMostly cloudy.7 mph88%29.74 "HgN/A
7:50 PM63 °FPartly sunny.7 mph88%29.74 "HgN/A
7:20 PM63 °FBroken clouds.5 mph94%29.71 "HgN/A
6:50 PM64 °FBroken clouds.7 mph88%29.71 "HgN/A
6:20 PM64 °FBroken clouds.7 mph88%29.71 "HgN/A
5:50 PM64 °FScattered clouds.8 mph94%29.68 "HgN/A
5:20 PM64 °FBroken clouds.7 mph88%29.68 "HgN/A
4:50 PM66 °FLight rain. Partly sunny.7 mph88%29.68 "HgN/A
4:20 PM66 °FLight rain. Scattered clouds.6 mph88%29.68 "HgN/A
3:50 PM66 °FPartly sunny.6 mph88%29.68 "HgN/A
3:20 PM66 °FLight rain. Partly sunny.6 mph88%29.68 "HgN/A
2:50 PM66 °FLight rain. Partly sunny.5 mph94%29.68 "HgN/A
2:20 PM64 °FLight rain. Partly sunny.6 mph94%29.68 "HgN/A
1:50 PM70 °FBroken clouds.5 mph69%29.68 "HgN/A
1:20 PM68 °FPassing clouds.5 mph78%29.68 "HgN/A
12:50 PM66 °FPassing clouds.6 mph78%29.71 "HgN/A
12:20 PM66 °FPassing clouds.6 mph78%29.71 "HgN/A
11:50 AM66 °FPassing clouds.5 mph78%29.71 "HgN/A
11:20 AM64 °FPassing clouds.5 mph83%29.71 "HgN/A
10:50 AM64 °FPassing clouds.6 mph83%29.71 "HgN/A
10:20 AM64 °FPassing clouds.5 mph83%29.71 "HgN/A
9:50 AM63 °FSunny.5 mph88%29.71 "Hg10 mi
9:20 AM63 °FSunny.5 mph88%29.71 "Hg10 mi
8:50 AM61 °FPassing clouds.5 mph94%29.71 "HgN/A
8:20 AM59 °FPassing clouds.6 mph100%29.71 "HgN/A
7:50 AM61 °FPassing clouds.6 mph94%29.71 "HgN/A
7:20 AM61 °FPassing clouds.6 mph94%29.71 "HgN/A
6:50 AM61 °FPassing clouds.8 mph94%29.71 "HgN/A
6:20 AM61 °FPassing clouds.9 mph94%29.71 "HgN/A
5:50 AM61 °FPassing clouds.7 mph94%29.71 "HgN/A
Weather by CustomWeather, © 2015

See weather overviewHow to use our weather pages